Theta_e
317 317 317 317 317 317 317 318 318 319 319 319 320 320 320 320 321 321 321 321 321 322 321 321 321 321 322 322 323 323 322 323 325 325 321 328 337 351 358 363 358 360 368 349 347 339 335 343 344 344 338 336 335 332 340 339 340 343 330 322 319 320 318 320 320 321 322 319 319 322 323 323 322 328 329 331 328 328 331 331 334 337 337 340 343 346 345 346
317 316 316 317 316 316 317 317 318 318 319 319 319 319 320 320 320 321 321 321 321 321 321 321 321 321 321 322 322 323 322 324 323 323 322 336 356 353 353 367 359 362 367 339 337 337 335 337 342 340 334 330 333 328 337 333 339 330 327 324 318 320 322 326 325 324 322 320 323 323 323 325 324 325 326 324 324 325 327 328 331 332 336 341 343 344 344 344
317 316 316 316 316 316 316 317 317 318 318 318 318 318 319 319 320 320 320 320 320 320 320 320 320 320 321 322 322 322 323 323 325 319 324 357 359 357 361 365 363 365 352 333 335 338 336 338 339 336 333 328 328 325 330 335 335 331 326 320 319 323 325 327 327 326 328 326 323 323 323 324 322 322 328 323 322 324 325 324 327 331 334 338 341 342 343 344
316 316 316 316 316 316 316 317 317 317 317 317 318 318 318 319 319 319 319 319 319 320 320 320 320 321 321 321 322 323 324 326 316 322 332 355 359 362 355 360 363 365 344 333 334 334 338 338 336 334 329 325 324 327 323 328 327 333 325 322 322 325 324 326 328 327 329 329 325 325 325 321 323 323 325 324 321 321 326 328 328 331 335 337 339 341 342 342
316 315 315 316 316 316 317 317 317 317 317 317 317 318 318 318 318 318 318 319 319 319 319 320 320 321 321 321 320 324 324 312 315 326 339 351 358 354 361 354 362 343 337 335 333 334 335 334 330 329 326 321 323 323 323 326 327 330 324 328 331 325 322 327 328 331 329 330 327 325 323 319 326 321 325 322 320 319 325 328 332 336 337 339 339 340 341 341
315 315 315 315 315 316 316 316 316 316 317 317 317 317 317 317 317 317 318 318 318 318 319 320 320 321 321 321 322 323 320 302 318 324 357 356 351 361 358 358 363 342 336 334 332 332 331 330 327 323 323 322 321 318 322 324 327 317 326 326 327 329 324 328 329 329 330 329 327 323 326 323 324 320 326 323 323 324 331 331 336 337 340 341 341 340 339 340
315 315 315 315 315 315 315 316 316 316 316 316 317 317 317 317 317 317 317 317 317 318 319 320 320 321 321 321 325 321 315 315 320 330 355 353 358 356 362 358 359 338 335 331 331 329 328 326 325 322 322 322 321 319 321 322 324 321 321 326 326 329 326 328 327 329 329 329 328 330 329 322 323 316 326 323 327 327 330 331 336 338 341 341 338 339 339 338
314 314 314 315 315 315 315 315 316 316 316 316 316 317 317 317 316 317 317 317 317 318 319 320 321 321 321 323 318 316 322 320 327 336 358 356 356 358 358 335 333 330 331 330 329 328 327 323 321 322 320 319 321 319 322 320 322 319 321 325 327 328 328 330 328 327 328 328 332 330 326 326 325 323 325 322 324 327 329 333 337 338 340 339 339 337 338 339
314 314 314 314 314 315 315 315 316 316 316 316 316 316 315 316 316 317 317 317 317 319 319 320 321 322 324 322 314 308 310 321 331 333 343 343 342 339 335 329 330 325 327 330 330 328 325 322 322 322 316 318 323 320 322 319 315 319 319 327 329 327 329 327 327 326 326 328 331 327 326 328 327 327 323 324 322 327 329 334 335 338 337 338 337 338 338 339
314 314 314 314 315 315 315 315 315 315 316 316 316 315 316 316 316 316 317 317 318 319 320 322 323 323 323 324 316 307 317 327 333 333 334 334 335 334 330 328 327 325 325 327 328 327 323 322 321 323 322 320 323 320 322 321 317 322 321 321 323 325 327 327 324 326 326 326 330 326 326 326 330 325 318 325 324 329 328 331 335 335 336 337 336 336 337 338
314 314 314 314 314 314 315 315 315 315 316 316 315 315 315 315 316 316 317 317 318 319 321 324 325 323 322 325 312 307 323 325 327 327 327 327 329 331 331 329 329 325 326 327 325 326 326 324 323 322 320 317 321 319 321 320 323 321 321 322 323 325 327 326 325 324 325 324 330 328 325 327 329 324 322 325 325 328 327 330 333 335 335 337 336 336 340 339
314 313 313 314 314 314 315 315 315 315 315 315 315 315 315 315 315 316 316 318 319 320 323 325 324 324 325 320 314 315 325 325 327 327 328 328 327 326 327 331 332 330 325 322 324 324 323 323 322 320 314 322 314 320 319 323 321 320 320 317 319 322 322 325 323 322 324 322 328 328 325 322 325 320 327 327 326 327 328 330 333 331 334 336 336 336 339 338
313 313 313 313 313 314 314 315 315 315 314 314 314 314 314 315 315 316 317 317 320 321 324 326 326 326 324 315 317 322 323 325 325 326 325 327 328 329 328 326 327 329 329 325 323 325 325 322 321 317 319 318 318 314 321 323 320 320 319 316 315 317 317 323 325 324 322 324 326 326 313 317 322 324 329 328 326 326 326 328 329 330 332 335 335 336 338 339
313 313 313 313 313 314 314 314 315 314 314 314 314 313 313 314 315 316 318 319 321 323 325 327 326 326 324 315 319 322 324 326 327 326 326 327 325 326 328 327 326 326 328 327 328 328 325 324 321 319 321 317 315 324 320 320 320 314 317 318 312 311 313 321 323 323 319 325 325 326 313 317 323 325 329 329 327 325 324 326 328 328 330 333 332 334 337 339
312 313 313 313 313 314 314 314 314 313 314 314 313 313 313 313 315 317 319 320 323 326 328 326 326 326 321 321 329 331 351 333 324 325 327 324 323 323 324 326 324 324 325 325 326 328 328 325 321 316 314 320 319 316 314 315 316 316 312 309 313 310 314 319 324 322 317 323 326 324 314 318 322 325 329 331 328 325 324 325 328 328 329 332 332 335 338 339
312 312 312 313 313 314 313 313 313 313 313 313 312 313 314 314 317 320 321 323 327 327 327 325 326 326 321 315 321 346 330 324 323 326 327 326 325 321 324 323 323 323 324 324 325 326 326 325 318 317 316 317 314 312 311 311 311 314 311 310 310 312 313 316 320 323 322 323 324 322 316 321 321 326 329 331 329 325 324 325 327 328 329 330 331 334 337 339
312 312 312 313 313 313 313 313 313 313 312 312 312 313 315 317 319 321 322 324 326 328 327 326 332 328 314 322 330 321 321 325 327 325 325 327 325 324 322 321 320 321 323 323 324 324 323 320 320 318 317 313 314 313 307 306 307 309 313 309 312 311 312 311 319 322 322 324 319 322 319 320 322 325 327 330 330 327 324 324 326 327 328 330 330 333 337 338
312 312 312 312 313 313 313 312 312 312 311 311 311 312 312 318 321 317 321 322 328 328 326 328 324 320 317 328 319 318 322 322 323 325 326 326 326 326 323 320 321 320 321 318 322 317 319 315 317 311 312 311 312 310 306 303 306 307 309 309 310 313 314 313 313 319 321 322 321 320 320 321 322 325 326 329 330 328 327 326 325 326 327 329 330 332 335 338
312 312 312 312 313 313 312 313 312 311 311 311 312 316 319 322 323 324 325 326 324 322 314 318 318 303 304 317 326 326 324 324 326 326 323 324 324 324 324 325 321 318 315 314 314 314 316 314 314 309 306 308 308 310 309 311 312 310 313 312 312 311 312 313 317 322 321 319 318 320 318 320 321 323 326 328 330 328 329 330 328 326 328 329 330 330 333 338
313 312 312 312 313 312 313 312 312 310 310 309 311 314 322 323 319 325 323 327 322 319 318 319 322 319 319 320 320 324 327 326 320 323 325 325 323 320 319 321 318 318 315 309 311 312 316 308 306 305 307 310 312 313 314 315 314 314 314 314 313 313 314 317 318 321 322 319 318 319 321 321 321 323 326 328 329 328 328 329 329 328 328 328 329 329 332 337
313 312 312 313 312 313 312 312 311 310 309 310 311 314 310 308 304 303 306 308 311 319 322 322 321 321 320 323 324 321 317 319 322 321 323 326 321 317 315 316 314 311 313 313 311 315 314 307 306 309 310 312 313 315 315 314 314 313 312 312 312 314 311 316 317 320 323 318 317 320 321 321 322 324 325 329 328 326 327 328 329 330 329 330 331 331 333 336
312 312 312 312 312 312 312 311 311 309 309 312 314 315 314 312 313 313 308 301 308 311 311 313 316 314 319 320 322 323 320 315 317 320 325 324 319 312 314 313 311 309 313 313 312 310 307 304 308 311 312 313 313 314 315 313 313 314 311 311 311 312 315 318 318 320 322 319 316 319 318 322 321 323 326 326 327 327 328 330 330 330 331 332 331 332 333 334
312 312 312 312 312 311 310 310 309 308 311 316 315 315 309 315 317 316 312 306 303 310 308 309 308 309 311 317 319 321 314 312 311 318 320 322 317 314 313 311 310 311 312 312 307 306 303 306 310 313 312 311 311 313 313 313 313 312 311 309 308 312 312 309 315 318 321 318 316 319 317 319 324 325 325 328 328 328 330 330 330 331 331 332 331 333 334 334
312 312 312 312 311 311 311 309 308 314 320 316 311 309 315 317 316 314 308 302 301 307 310 312 311 310 310 310 317 316 313 313 313 313 322 320 313 315 312 312 310 310 309 311 310 307 306 310 313 312 312 311 309 311 311 311 309 312 312 311 311 311 313 313 313 317 320 320 320 318 317 317 320 321 322 327 330 329 329 330 330 332 332 333 334 335 337 335
312 312 313 312 310 310 309 308 312 310 311 309 311 316 317 318 317 315 307 305 306 307 316 312 314 313 314 320 319 312 314 315 315 317 319 318 314 313 311 315 313 308 309 312 311 308 308 313 314 311 310 310 309 309 310 311 309 310 313 313 313 314 314 315 315 315 313 313 318 316 308 310 318 319 320 323 326 326 330 329 328 333 332 334 333 335 337 337
312 313 313 312 312 309 308 307 311 308 309 310 313 316 317 315 316 316 307 301 297 306 313 308 316 310 320 313 315 314 315 309 316 317 319 318 320 315 314 311 314 307 310 310 310 310 310 313 313 310 309 309 309 308 311 312 309 308 310 315 314 314 314 313 313 313 308 307 315 319 308 307 317 318 320 324 323 325 328 329 329 332 334 331 332 334 335 336
313 313 312 311 311 309 304 304 309 310 308 311 315 317 315 315 321 313 305 300 298 311 307 314 313 313 318 315 314 315 301 306 317 318 317 320 315 319 310 309 312 313 314 313 309 306 312 311 311 311 310 308 307 306 310 312 309 307 315 316 315 313 312 313 314 313 312 317 318 318 315 308 310 316 323 323 324 324 325 328 329 329 332 330 332 332 337 336
313 312 311 311 310 309 307 308 308 308 309 312 316 315 316 317 317 312 303 293 295 315 308 309 313 318 315 316 316 310 311 317 309 313 317 319 318 315 311 310 309 310 312 311 301 310 312 310 310 309 309 307 306 309 312 313 310 311 316 316 314 314 313 314 313 312 312 312 308 313 317 310 309 317 323 322 319 321 323 326 329 331 331 332 333 332 334 336
312 312 312 311 310 308 311 310 309 308 313 316 316 316 316 317 312 304 299 292 309 310 321 309 322 315 314 316 313 313 312 315 310 314 317 318 318 316 308 310 312 312 314 312 306 309 313 313 312 311 309 306 310 311 312 313 309 314 317 317 316 315 315 314 311 311 311 308 305 310 314 307 308 316 317 321 320 320 321 325 326 330 332 333 332 334 334 337
312 312 312 311 309 310 311 310 308 314 316 316 317 318 316 311 305 298 294 289 309 303 313 314 312 310 313 310 310 312 310 312 316 316 315 313 315 317 315 318 312 311 311 313 311 311 313 318 317 313 310 311 312 312 313 312 314 317 316 313 313 313 312 313 312 311 309 303 307 311 313 310 304 312 315 316 317 320 322 325 327 331 332 333 336 335 336 339
312 311 310 310 306 309 308 305 309 314 315 319 316 313 309 305 298 295 290 300 310 309 315 311 310 315 310 308 306 311 310 312 313 315 311 315 313 314 314 311 314 310 309 310 309 311 312 314 313 314 316 315 314 311 313 314 314 314 312 310 309 309 310 310 309 312 303 300 308 311 312 313 303 308 315 320 324 324 323 322 326 327 329 333 337 335 335 341
310 309 310 309 309 311 305 303 309 311 313 316 313 307 302 293 298 291 294 312 299 307 308 308 312 312 311 312 310 309 307 310 314 313 310 310 309 308 308 305 308 301 301 304 305 311 308 309 313 315 318 314 311 309 310 311 312 311 310 310 304 301 304 300 304 299 301 300 308 312 312 308 308 313 317 320 321 324 325 323 324 326 329 331 333 334 335 344
308 307 307 309 313 312 312 312 313 315 318 314 308 306 297 293 289 296 297 305 301 311 309 313 311 311 311 310 308 311 311 306 314 313 313 312 310 310 311 309 311 307 300 305 305 305 306 311 311 313 314 315 312 305 305 305 308 308 307 306 302 298 298 295 299 303 303 307 311 310 313 307 312 315 319 319 323 325 326 327 327 329 330 333 337 339 338 343
307 307 308 312 313 315 316 318 318 318 316 314 306 299 296 290 291 305 300 302 305 312 312 310 311 312 311 307 309 311 306 310 311 311 313 310 309 307 309 310 311 309 307 307 303 304 300 300 306 309 307 314 311 309 308 307 307 307 311 308 305 304 300 296 299 297 299 302 307 312 307 305 306 310 320 321 324 326 327 327 329 333 333 335 337 340 340 341
307 308 313 316 316 318 319 319 318 317 316 310 301 296 289 289 297 298 300 303 306 308 307 312 309 308 308 309 311 312 311 307 311 311 310 309 306 307 307 307 310 311 309 302 306 306 304 304 310 313 313 314 310 312 313 310 308 309 310 311 306 304 310 301 304 302 302 304 303 307 307 311 310 321 323 324 323 324 326 327 328 330 331 331 332 333 334 337
307 312 314 312 313 315 316 319 319 318 314 306 297 291 289 295 295 301 301 309 308 306 307 309 308 305 305 307 311 310 314 309 310 309 308 309 310 307 310 310 309 310 308 302 306 302 306 303 312 313 314 313 312 313 312 312 300 307 307 302 305 312 310 306 307 308 308 305 302 310 309 312 317 318 320 322 322 322 324 324 325 328 329 331 332 334 335 337
307 311 309 313 314 317 317 319 319 317 312 304 295 290 295 298 302 303 307 306 307 308 306 301 303 303 303 303 306 308 310 311 310 308 305 310 307 310 309 310 313 311 311 310 306 310 304 305 312 312 309 313 316 314 313 313 312 308 303 306 312 314 312 308 300 304 302 299 302 307 305 307 308 305 319 318 318 320 322 323 323 326 328 327 328 337 337 336
307 308 311 313 317 320 318 320 319 315 309 301 293 297 300 297 303 303 306 305 305 306 304 302 304 307 303 304 304 307 310 306 307 309 306 309 305 314 311 310 313 312 312 313 308 308 310 303 309 313 313 313 315 314 310 313 313 308 306 314 305 301 300 307 305 297 298 297 300 304 307 307 309 309 314 315 317 318 321 324 323 323 325 325 326 334 335 338
308 308 305 311 320 319 317 322 316 312 305 297 295 293 298 299 303 303 305 305 306 304 300 302 302 306 306 304 306 309 309 304 307 306 304 307 304 312 311 313 311 313 313 313 308 310 311 302 305 313 312 312 312 310 302 305 311 312 312 309 312 308 305 302 303 305 304 299 300 301 304 303 312 312 315 315 318 320 320 322 322 323 324 325 326 332 333 337
306 302 300 311 318 321 322 317 311 307 302 296 297 297 302 300 303 305 305 304 302 301 301 301 304 302 305 306 308 306 309 308 307 306 306 308 306 313 311 315 312 313 314 314 310 311 307 311 300 308 314 312 304 307 305 306 304 305 305 304 306 307 310 308 307 304 303 301 300 300 299 305 312 317 317 318 321 322 321 323 326 324 324 324 326 332 337 339
306 300 301 311 313 318 316 311 304 298 297 301 302 301 303 302 305 305 307 307 305 308 303 302 302 301 303 304 305 308 307 308 308 306 307 307 308 304 312 313 314 312 314 313 310 310 306 307 302 306 307 306 307 311 310 310 309 306 304 303 304 304 303 299 298 308 306 303 298 300 299 308 315 319 321 320 323 321 322 324 324 324 324 326 327 327 337 338
300 295 300 312 313 313 309 300 301 303 299 296 296 301 300 307 303 304 306 308 307 304 308 304 303 302 302 304 306 307 306 305 307 307 308 306 309 308 312 315 315 315 312 308 308 312 311 309 306 303 305 307 310 313 314 313 313 311 308 305 307 306 307 303 296 301 305 306 308 306 302 305 318 323 324 320 323 321 323 323 324 323 324 326 328 326 340 341
299 297 308 310 312 309 302 297 300 299 298 301 304 302 304 302 302 304 304 306 304 306 305 303 303 302 303 302 304 306 307 304 306 305 308 309 309 311 314 314 315 315 314 311 312 312 325 306 303 305 309 311 314 315 315 314 313 309 309 309 307 304 306 305 305 307 303 305 303 303 301 305 316 328 331 322 334 323 324 324 328 324 325 327 329 329 341 341
299 299 301 308 310 307 299 291 292 295 296 299 300 300 303 302 301 301 301 303 303 304 303 303 304 305 303 305 304 301 304 299 306 306 306 309 308 314 314 313 315 312 312 311 309 313 306 308 305 302 302 304 307 310 310 313 311 308 307 308 308 308 307 308 308 311 303 304 305 302 298 304 316 326 331 325 322 321 321 322 325 324 331 327 331 343 338 343
299 301 301 304 309 307 295 297 295 294 295 296 297 296 299 300 303 302 301 301 304 304 303 302 305 306 304 305 303 304 305 302 301 307 307 308 309 315 313 313 314 312 315 323 348 317 308 307 305 298 296 294 295 297 299 302 305 308 309 309 309 307 306 304 300 304 299 309 308 303 303 311 318 322 323 323 322 327 325 323 323 328 336 331 338 337 344 342
295 290 298 299 302 302 302 302 299 297 295 296 296 298 300 297 301 304 303 303 304 304 303 304 306 307 304 303 301 301 301 304 301 301 304 305 308 312 313 314 314 314 329 331 327 318 309 310 308 305 303 301 303 309 310 310 308 304 306 307 307 309 309 307 305 302 299 303 307 306 309 311 314 316 319 317 321 321 321 326 323 325 329 336 350 345 340 347
299 292 293 292 299 299 298 301 298 299 296 298 292 297 296 297 299 300 304 298 303 303 302 302 303 302 301 301 300 300 301 301 303 302 302 303 307 310 314 314 314 317 336 322 319 315 314 307 307 311 308 308 309 309 311 310 307 307 306 306 307 307 308 306 303 300 309 306 298 308 319 311 311 316 319 320 319 322 325 325 323 326 339 332 336 349 351 347
291 296 298 300 292 290 292 294 298 296 298 298 294 297 295 295 296 294 299 301 302 302 298 300 300 301 301 301 302 298 300 300 301 299 302 304 304 308 309 313 312 324 322 316 318 314 310 306 309 308 307 307 309 311 311 310 309 309 308 307 306 307 307 305 306 306 310 302 300 310 319 314 314 313 316 322 326 325 320 324 324 326 326 334 336 346 344 343
299 298 298 302 293 295 295 296 297 295 294 296 295 294 292 294 293 296 295 295 297 297 300 293 296 297 298 299 298 297 300 296 295 301 302 301 303 304 305 308 311 316 312 312 313 317 312 307 310 310 307 308 308 308 310 310 309 308 308 308 308 308 306 306 306 307 307 310 311 310 319 315 312 314 316 318 326 322 323 328 329 329 323 332 338 344 333 343
294 294 293 299 297 295 296 296 296 296 293 297 292 293 293 292 291 294 295 295 292 294 297 293 295 297 298 298 299 297 298 298 297 294 300 302 301 304 303 305 306 311 312 309 310 313 309 306 311 309 307 307 309 309 309 309 309 308 308 309 308 308 307 307 307 307 309 308 308 308 311 313 315 322 320 320 323 326 326 324 322 326 327 325 328 328 327 326
301 303 302 295 290 293 295 295 294 294 293 294 292 293 294 293 291 293 293 297 294 291 293 293 296 296 297 297 298 298 300 299 299 299 301 301 297 303 302 304 308 306 308 307 309 310 310 306 310 308 304 304 308 309 309 309 308 308 308 308 308 307 306 307 306 308 306 307 309 307 307 308 313 318 318 322 322 322 323 328 330 328 325 326 328 327 328 344
305 305 304 298 289 295 292 295 294 293 290 294 294 294 293 294 296 296 292 296 297 297 298 297 297 295 295 296 296 298 300 301 301 302 304 305 306 307 309 309 309 305 305 305 309 307 308 306 305 305 302 303 307 308 308 308 307 303 305 307 309 309 309 310 310 310 309 308 305 304 305 313 319 321 316 317 317 320 322 321 322 328 333 326 328 330 329 330
Wind_Speed
22 23 22 22 23 22 22 22 23 23 23 24 24 24 23 23 23 23 23 22 23 23 22 22 22 23 23 22 21 20 20 11 17 13 15 17 13 10 8 7 13 12 10 8 11 13 14 15 16 14 12 11 11 12 9 11 7 4 1 2 8 9 12 4 2 1 7 10 9 8 9 11 9 8 9 9 12 12 13 12 9 11 13 14 18 20 20 19
23 23 23 21 23 23 23 23 23 24 23 24 24 23 23 24 24 23 23 22 22 23 23 21 22 22 22 21 20 20 17 13 14 20 21 8 11 10 11 9 9 12 12 11 13 15 15 15 15 14 12 11 10 11 13 9 8 4 2 4 8 7 10 11 4 2 4 9 9 8 11 10 10 9 9 10 13 11 13 11 10 12 16 19 20 21 20 19
23 24 23 22 24 23 24 23 23 24 23 24 24 25 23 23 23 23 24 23 23 22 23 23 22 22 22 21 18 18 14 13 14 19 17 16 14 12 12 11 11 11 14 14 14 15 15 14 15 14 13 12 10 12 13 11 11 9 7 7 6 7 17 19 20 4 4 5 10 8 9 10 9 9 10 11 12 11 12 11 12 15 18 20 20 20 20 18
24 23 23 23 24 24 24 23 24 24 25 24 24 25 25 24 23 24 24 23 23 23 23 23 23 22 22 21 17 16 11 13 16 2 13 10 12 11 10 10 12 12 14 15 14 15 14 14 15 15 12 12 10 13 11 13 12 14 11 6 5 8 9 17 16 4 7 7 7 9 9 11 9 10 10 15 12 11 13 12 12 17 20 20 20 20 19 18
24 24 24 23 23 24 23 23 25 25 25 23 24 25 25 24 24 24 24 24 24 23 23 23 23 22 21 19 17 11 9 13 3 11 10 10 10 9 9 12 12 13 15 14 15 16 15 14 14 14 12 10 12 13 13 12 9 13 13 12 11 1 9 17 18 18 8 6 6 7 9 10 6 8 9 11 9 7 10 14 14 18 19 21 21 21 20 19
24 24 24 23 24 23 24 24 25 25 24 24 25 25 24 22 23 24 24 24 24 23 23 23 23 22 21 18 14 9 6 4 6 6 8 11 11 9 11 11 11 12 12 14 14 15 15 15 15 13 11 11 12 12 11 11 12 9 11 9 7 9 11 16 20 6 8 8 8 9 5 11 9 6 8 9 4 9 12 14 19 17 19 19 19 19 20 20
24 24 25 23 25 24 24 23 23 22 22 22 23 23 23 22 22 22 23 23 23 23 23 23 23 22 19 19 12 7 10 16 17 2 11 10 10 12 12 10 9 10 12 13 15 14 15 15 15 13 11 12 14 14 16 14 16 8 12 12 10 13 12 15 12 9 7 9 10 6 7 8 9 8 7 9 9 15 14 13 18 18 19 19 20 19 19 19
25 25 25 24 25 24 24 23 23 23 23 23 23 23 23 24 22 22 22 22 23 23 23 22 20 19 17 12 6 8 11 14 12 14 12 11 10 11 12 10 10 10 12 16 15 16 14 16 15 13 13 12 10 14 12 16 12 13 15 19 14 15 14 17 9 8 7 6 8 7 10 6 7 7 7 9 4 10 17 16 18 18 19 19 20 19 19 19
25 23 25 24 24 23 24 24 24 25 25 24 24 24 24 22 23 22 23 23 23 23 22 21 19 15 11 6 7 11 13 17 11 14 17 13 14 11 11 8 11 11 12 14 16 15 14 13 16 13 12 15 14 16 15 12 10 11 10 15 17 19 17 8 7 6 10 6 8 10 11 8 9 10 9 10 10 8 16 19 17 19 19 19 19 19 18 17
24 23 24 23 23 24 24 25 25 26 26 26 25 26 25 24 22 22 23 23 22 22 21 19 15 11 9 6 8 10 12 11 14 16 19 15 11 8 10 9 12 12 11 14 14 16 15 11 13 13 16 16 14 15 16 16 8 8 15 14 9 12 6 6 11 8 10 9 11 11 11 10 9 8 8 11 12 8 14 18 18 18 19 18 17 17 17 19
25 24 23 23 24 25 25 25 26 26 26 27 27 27 26 25 24 24 23 22 22 21 19 16 11 8 7 8 7 12 7 8 8 4 6 5 8 9 9 10 12 11 12 12 14 15 13 14 12 9 10 11 11 17 14 12 14 16 12 6 8 10 8 11 13 15 9 9 12 11 12 9 11 8 6 12 12 11 16 18 18 17 16 17 18 17 15 14
24 25 24 25 25 25 26 26 26 27 27 28 27 27 26 26 26 24 23 21 21 19 16 11 7 5 8 10 12 15 9 13 12 7 7 10 10 10 11 11 12 12 11 12 13 13 14 14 14 12 10 8 13 13 15 15 14 18 18 15 13 12 12 13 14 8 8 7 12 12 12 11 11 10 9 13 12 13 16 17 19 17 16 17 16 16 14 15
25 25 25 26 26 26 26 26 27 27 27 27 28 27 28 27 26 25 22 21 16 15 13 12 8 6 7 10 17 21 21 17 15 15 14 10 9 10 10 12 12 11 12 12 12 12 13 13 14 15 15 13 11 11 8 8 12 15 16 13 5 13 13 13 12 13 10 8 13 12 10 9 12 9 10 14 12 14 15 16 17 15 16 16 16 15 16 15
25 25 25 27 27 27 27 27 28 27 28 28 27 28 28 29 27 24 21 19 19 17 13 9 7 7 8 12 10 12 17 14 18 16 14 10 11 11 12 12 12 11 10 13 12 10 12 12 13 15 12 15 13 11 18 11 11 11 12 8 9 10 9 11 10 13 11 12 14 13 7 6 11 10 10 14 14 15 15 15 16 15 16 16 15 15 15 16
24 26 26 27 28 28 28 28 27 27 27 28 28 29 28 28 27 24 19 17 14 13 10 5 7 5 8 11 14 24 27 20 16 14 12 15 13 13 14 13 14 13 12 12 11 10 10 11 13 13 12 12 16 17 14 11 10 11 11 12 11 11 6 9 9 12 11 14 13 13 7 9 8 12 12 14 13 14 15 15 16 15 15 16 15 16 16 15
24 26 28 27 27 28 28 28 28 29 28 27 28 30 31 26 23 21 17 13 11 8 6 6 9 10 11 15 7 5 9 15 16 15 13 13 12 13 13 14 12 13 13 12 10 8 10 11 13 11 12 13 16 13 11 10 11 11 12 10 12 11 8 8 13 11 12 13 13 13 4 5 10 7 9 15 15 14 14 16 15 17 18 17 14 15 14 15
24 26 28 28 28 28 29 28 29 30 30 30 31 32 29 24 19 13 12 12 8 7 6 5 5 11 6 1 7 9 8 12 11 11 11 11 13 13 12 12 13 14 13 13 11 10 11 12 8 9 12 12 13 12 12 11 10 9 10 12 11 13 10 6 9 12 13 11 11 14 9 8 5 7 14 16 16 15 15 16 16 15 14 16 15 15 16 15
25 26 28 28 28 28 29 29 28 29 31 31 30 30 25 23 14 8 8 8 7 7 9 10 9 8 16 18 14 15 13 10 10 10 10 10 10 11 12 11 10 13 13 12 13 13 12 12 10 11 11 14 14 14 14 13 11 10 11 11 11 15 11 7 7 11 13 15 12 14 12 9 9 11 13 16 17 16 15 15 17 16 16 15 15 14 17 15
26 28 26 27 27 28 28 29 28 29 29 29 30 28 24 9 3 6 5 6 7 4 5 9 9 10 6 8 16 12 8 12 9 10 12 11 9 8 7 7 10 13 12 12 11 16 12 11 11 12 15 15 16 16 16 15 15 16 14 12 12 11 9 9 11 9 13 13 13 13 11 10 10 8 11 17 16 16 15 15 15 16 16 15 15 15 15 15
26 24 26 27 27 28 28 28 28 28 27 23 18 15 6 4 3 4 6 9 12 12 14 7 16 14 17 21 13 2 6 4 11 11 11 9 7 11 11 10 12 13 13 12 12 16 10 13 15 16 15 16 19 21 20 18 19 18 16 14 15 13 8 8 13 14 15 13 14 13 11 13 11 12 11 14 15 15 16 16 15 15 15 16 16 16 15 17
24 27 27 28 29 27 28 29 29 29 25 16 15 11 7 12 10 6 13 14 16 19 19 21 19 18 18 15 13 13 11 11 11 12 14 8 10 7 11 11 13 13 14 14 12 12 14 14 17 18 19 19 19 21 20 19 20 21 16 16 14 12 10 12 15 15 14 13 11 12 13 11 12 12 12 12 15 16 17 17 15 16 16 15 16 17 16 15
24 25 26 28 31 30 29 31 31 29 27 11 7 7 10 8 7 9 10 14 11 15 19 24 23 24 20 22 20 17 15 12 17 15 13 11 11 11 10 13 14 14 13 14 13 12 15 18 17 20 18 19 19 19 21 22 20 19 17 15 14 10 11 11 12 17 14 13 10 14 14 13 15 15 17 16 15 14 16 16 16 16 16 14 16 17 16 15
26 25 25 27 29 32 31 33 32 32 12 5 8 10 9 10 8 8 9 14 21 19 24 24 23 25 22 18 18 18 20 18 14 16 15 12 13 15 11 13 14 14 14 17 15 14 15 16 20 18 18 20 21 21 21 23 20 16 15 15 14 11 10 11 15 14 14 10 9 11 13 11 16 16 12 12 16 14 15 17 17 16 15 16 18 17 15 16
26 25 24 25 28 31 33 32 34 19 5 10 14 15 8 7 8 10 12 8 14 18 18 20 23 22 22 19 15 20 21 15 16 16 15 15 15 12 15 15 16 15 15 18 20 17 15 12 16 18 19 20 21 22 22 18 17 19 19 16 13 14 13 13 7 10 11 12 10 9 10 9 9 13 11 14 18 15 15 15 15 14 16 16 17 17 17 17
25 24 24 25 26 30 33 35 13 9 17 16 10 6 5 6 7 9 10 10 10 13 13 21 14 17 18 15 16 17 18 15 19 15 13 17 16 12 14 11 11 15 17 18 19 20 19 17 14 19 20 21 21 20 23 18 16 17 22 21 17 17 17 14 14 11 9 10 12 12 8 10 10 14 17 15 11 13 13 14 15 13 13 12 15 16 17 17
25 24 23 23 25 25 35 16 6 16 18 12 7 8 8 8 8 8 8 5 12 10 8 13 13 14 13 18 15 16 16 17 18 15 15 15 15 15 9 13 10 15 18 18 16 12 15 17 17 17 20 21 22 20 21 22 16 16 16 22 23 22 17 12 17 13 11 11 12 14 13 9 9 14 13 12 13 15 15 16 16 13 11 14 13 13 16 18
26 27 23 22 23 21 16 6 14 18 12 3 11 11 11 10 7 11 6 7 10 6 12 7 14 5 11 16 17 15 14 14 12 17 19 16 18 15 16 13 12 11 11 10 9 13 13 20 19 18 19 21 19 20 20 22 18 16 15 19 21 22 22 18 17 12 10 11 11 15 13 11 9 11 12 13 14 15 16 16 15 14 14 15 14 15 12 16
27 26 24 22 23 17 10 13 15 13 12 12 13 13 12 9 9 8 5 6 6 5 9 8 2 5 8 14 19 16 14 4 15 18 21 18 18 17 17 17 15 15 15 12 16 10 16 17 20 20 19 17 19 19 19 22 19 14 16 18 19 21 20 19 15 13 13 12 10 12 15 11 10 9 12 14 14 14 18 19 17 14 16 15 15 16 15 15
25 26 26 23 24 29 20 10 10 15 13 13 12 12 9 10 10 5 5 8 5 7 5 10 1 6 6 12 17 16 17 11 11 15 20 20 21 13 15 20 17 16 17 17 14 12 13 16 18 21 16 16 16 18 20 20 20 19 18 18 17 17 20 20 16 16 12 9 10 11 11 10 10 9 9 12 15 15 17 15 18 18 16 16 15 14 15 12
27 27 27 23 21 13 8 10 14 19 16 15 14 12 12 10 7 6 7 10 3 6 9 5 10 11 13 14 14 18 19 13 11 12 19 16 20 18 13 14 17 16 16 18 19 16 15 14 16 15 17 14 15 18 20 22 22 15 19 19 16 17 16 17 16 14 11 11 9 15 16 14 12 12 12 12 13 17 17 16 17 16 16 16 15 15 12 11
26 27 24 22 12 8 12 11 15 8 8 7 10 12 9 6 6 7 13 5 3 6 8 6 12 12 16 18 14 17 19 15 14 12 15 16 17 18 13 13 14 14 14 15 16 19 20 17 15 13 15 13 16 17 20 21 19 20 15 15 13 14 16 15 13 14 14 13 10 17 17 20 16 10 14 15 14 16 17 17 19 20 19 15 13 16 16 13
25 28 29 19 17 11 9 10 11 14 12 11 11 8 6 8 8 13 9 5 9 7 13 9 13 13 19 19 15 16 17 18 14 15 15 15 15 17 17 15 13 14 15 14 14 16 19 19 14 15 14 21 18 15 13 17 20 20 18 15 15 11 9 12 9 13 12 13 14 18 18 16 18 12 13 17 20 18 17 16 17 21 20 19 18 17 13 12
25 27 33 24 17 10 17 18 15 12 11 12 10 7 8 8 14 15 13 8 4 5 8 11 11 16 15 17 17 17 19 17 16 16 17 17 15 17 20 19 16 15 12 14 14 14 14 17 21 16 14 17 18 16 14 16 18 19 18 15 15 14 13 11 12 10 12 15 17 17 18 17 12 13 19 19 15 18 19 17 16 16 17 15 15 16 17 15
25 28 19 17 14 15 13 13 12 12 10 7 8 7 10 12 15 6 17 16 14 5 7 5 8 15 16 15 15 16 16 18 18 15 19 14 18 15 17 23 21 18 15 11 14 13 12 15 19 19 13 15 19 17 17 14 13 15 13 17 15 12 10 13 12 15 13 10 13 17 16 9 16 8 17 21 18 15 16 18 15 14 17 18 21 20 19 17
30 27 19 17 14 15 18 16 12 10 8 7 8 11 14 19 8 11 11 12 13 20 21 11 11 11 16 17 16 19 16 14 21 19 18 17 16 16 16 18 25 20 15 14 11 10 20 13 12 21 14 16 20 19 16 16 13 16 17 16 18 18 11 15 10 13 12 12 15 14 13 9 13 4 9 13 19 20 16 12 14 15 15 16 16 18 19 18
25 12 15 13 12 12 12 13 13 11 8 8 10 13 21 13 9 9 10 9 12 13 14 19 17 14 13 14 16 20 22 16 21 19 17 20 18 18 19 15 20 24 16 15 9 12 12 14 13 17 24 18 19 17 18 15 14 13 17 20 20 16 17 13 14 18 15 13 14 8 11 13 11 12 13 12 12 16 17 17 15 12 15 14 17 20 20 19
15 17 13 15 15 14 13 8 9 9 9 10 13 18 15 12 17 14 7 13 12 13 14 14 13 14 14 14 14 19 18 21 17 17 14 18 18 22 20 19 19 25 26 14 13 12 10 11 15 16 23 22 17 18 19 21 17 11 16 17 17 19 17 12 13 10 13 14 12 14 17 13 10 10 11 13 15 16 16 17 17 15 15 17 14 19 19 18
16 15 19 20 20 15 13 8 9 8 9 11 18 22 9 16 13 18 18 20 17 17 15 14 10 16 16 17 14 18 19 17 17 17 15 17 13 20 21 17 23 21 26 24 14 12 13 12 12 19 18 19 19 17 19 22 25 22 15 13 16 15 19 13 9 17 15 15 11 14 15 14 14 12 10 15 16 14 14 14 17 17 18 18 16 22 22 22
14 13 13 13 7 2 7 4 7 8 11 13 16 15 14 19 18 19 16 17 17 18 16 16 14 12 16 15 15 17 19 18 16 17 15 14 16 17 23 16 18 24 23 26 18 12 11 12 10 13 18 17 18 16 18 18 22 26 21 16 17 14 14 15 14 10 9 12 13 15 18 12 11 12 15 15 16 16 18 16 16 19 18 13 11 18 21 19
10 9 11 12 3 2 5 5 8 10 12 17 14 15 10 14 15 19 24 24 17 14 14 17 17 16 16 17 17 16 17 21 19 17 19 10 16 14 20 22 16 21 24 25 19 17 13 9 11 10 18 16 17 16 19 16 17 18 19 18 14 13 11 12 12 15 13 11 12 12 15 11 12 10 15 17 14 14 15 11 10 11 14 15 13 14 19 20
10 8 10 15 15 4 4 8 11 12 14 14 18 17 17 14 13 16 19 24 19 17 19 17 15 14 14 15 18 19 14 16 18 17 15 17 16 12 17 17 18 19 21 23 23 17 13 12 12 11 13 17 16 17 19 18 16 16 17 19 18 15 15 17 16 15 17 13 7 12 14 9 11 12 9 9 8 13 11 14 13 17 20 20 14 16 19 18
11 9 9 11 16 10 9 11 11 12 12 15 14 12 14 14 19 21 21 18 21 17 15 19 23 20 17 19 18 15 15 17 16 18 17 17 19 17 11 20 17 21 16 17 18 18 13 9 12 15 14 14 19 19 22 21 19 19 18 19 20 17 14 14 12 13 16 17 17 14 13 12 7 7 7 12 9 14 14 17 15 18 21 22 19 16 18 22
9 12 15 25 20 15 11 13 13 13 15 15 17 21 21 20 18 16 18 19 20 16 17 19 19 18 19 18 18 18 18 14 19 18 17 20 19 22 16 18 22 20 20 14 20 16 14 12 13 12 13 15 15 19 19 22 21 19 19 20 19 21 21 16 13 12 13 15 17 13 15 11 9 7 5 9 5 9 13 14 10 15 19 20 15 12 18 13
11 12 14 16 18 14 13 16 14 14 14 17 21 22 18 19 19 19 20 19 15 14 19 16 18 23 19 19 17 18 15 14 16 23 18 18 18 24 23 26 22 17 18 12 13 15 14 12 13 11 10 11 15 16 18 18 18 15 15 17 21 22 25 22 17 8 15 17 17 13 15 12 10 7 5 9 10 13 15 14 12 11 6 13 9 12 17 14
11 12 14 13 13 12 15 12 15 15 15 18 18 20 20 19 18 24 21 19 18 20 17 18 19 15 18 18 21 20 20 19 13 16 19 17 18 16 21 27 23 18 19 4 7 13 16 12 13 15 16 16 16 16 17 16 17 14 17 19 21 24 26 21 20 12 10 11 21 15 14 10 9 12 11 9 11 7 9 10 12 8 5 4 10 18 14 16
7 10 8 10 9 11 14 15 16 16 16 16 14 13 15 15 15 16 17 19 23 24 20 18 19 21 19 17 19 22 23 21 20 12 12 13 16 13 18 23 24 21 3 9 7 10 12 14 14 15 14 13 13 8 9 14 14 18 21 24 22 22 24 22 15 15 16 6 11 14 15 7 10 15 15 17 13 12 9 7 10 10 8 5 7 9 13 9
7 9 8 9 10 10 11 10 14 11 8 8 10 10 16 16 15 18 14 12 12 15 15 17 17 21 18 18 18 19 22 24 23 21 21 19 17 17 19 23 15 19 8 3 6 5 8 17 20 18 22 17 14 16 16 17 19 19 21 22 24 23 22 23 19 19 13 11 12 6 7 13 12 11 9 14 18 14 9 10 12 10 4 5 10 10 11 10
7 8 11 8 10 9 14 10 11 9 10 10 12 10 16 17 17 14 16 10 17 15 11 10 15 18 17 19 19 16 16 20 18 20 21 21 18 19 19 20 21 11 7 11 7 8 9 11 16 21 24 27 23 17 20 19 17 18 21 22 23 24 24 24 21 22 16 15 17 10 9 12 13 19 13 8 8 9 10 10 12 10 10 8 7 12 17 17
9 9 12 11 11 10 13 17 19 18 17 16 11 11 16 17 19 16 11 16 17 11 9 10 15 19 19 19 16 10 15 11 11 14 18 16 21 17 15 17 24 18 20 18 15 8 8 12 14 17 19 22 26 26 21 20 19 19 20 20 21 22 24 25 24 23 24 14 13 15 10 15 19 19 19 17 7 9 10 7 6 9 13 10 5 13 12 13
8 9 7 9 11 13 16 15 15 15 15 12 11 11 12 12 17 17 14 12 15 16 12 14 18 19 18 17 16 11 14 15 13 15 19 19 17 16 15 15 13 21 16 16 14 13 10 9 12 15 15 17 22 24 26 25 20 22 22 19 20 21 22 24 24 23 20 22 25 23 17 11 10 8 13 17 12 8 8 11 16 12 11 14 11 12 13 13
9 9 6 9 13 9 11 14 14 12 11 12 12 13 14 15 16 14 18 14 16 15 12 16 15 16 16 18 17 16 17 19 20 20 22 20 14 16 13 12 20 14 23 17 16 14 14 10 10 13 13 15 18 22 25 25 24 22 22 22 23 23 22 21 18 17 18 15 15 21 18 13 11 13 13 13 16 16 13 8 7 10 16 15 13 11 10 4
8 8 5 5 8 10 12 14 15 14 13 10 12 12 11 16 14 13 13 10 11 15 12 12 12 12 15 16 15 17 20 21 22 24 21 19 17 20 18 19 19 17 11 20 17 18 12 11 13 13 15 14 16 18 18 20 20 21 24 24 23 23 20 16 16 18 19 19 17 14 13 10 8 8 14 15 18 16 14 14 14 11 9 16 15 11 10 11
Wind_Direction
354 352 351 350 348 346 345 343 341 340 339 338 337 336 335 335 333 332 332 331 329 327 326 325 325 323 324 322 321 323 322 315 302 290 250 246 251 128 101 113 156 173 175 189 211 188 190 201 205 209 220 219 218 229 167 174 117 95 126 267 277 301 339 2 315 197 104 131 139 166 132 136 133 118 113 126 135 128 148 135 140 137 141 133 129 136 138 140
352 351 351 349 347 345 344 342 340 339 339 337 336 334 334 333 332 330 330 329 328 325 324 323 323 323 322 322 320 322 323 297 282 278 272 263 141 146 140 164 174 168 179 205 211 201 197 200 206 212 222 228 223 230 173 164 149 141 162 206 278 277 252 298 356 31 195 110 168 147 131 156 127 137 151 151 130 151 140 122 132 127 120 121 133 139 143 142
351 350 349 348 346 344 343 342 340 338 337 337 335 334 333 331 330 329 328 327 325 323 321 322 322 322 321 321 318 318 312 299 280 270 270 134 146 138 152 164 178 177 187 209 214 211 209 202 206 213 218 238 215 230 209 163 161 181 181 216 257 308 296 295 300 304 145 137 135 176 144 131 136 147 192 142 143 162 142 142 145 136 130 137 140 144 144 150
350 349 347 346 345 343 342 341 340 338 336 335 334 333 331 330 329 328 326 324 322 321 321 319 320 321 320 317 319 316 294 283 284 241 110 130 134 148 154 161 184 187 212 227 225 223 215 223 216 209 221 222 239 237 209 168 202 172 200 221 192 236 276 275 272 225 132 176 148 165 148 120 182 128 214 123 151 180 144 151 154 142 142 143 146 146 150 151
349 348 347 345 344 342 340 340 339 337 335 334 333 332 330 329 328 325 323 321 320 319 318 317 319 319 319 313 313 299 302 291 95 102 127 121 126 138 156 177 182 202 213 228 239 241 225 219 228 220 224 229 237 241 213 190 200 167 204 177 176 90 272 274 263 234 151 159 165 112 199 130 157 141 193 155 160 170 155 149 143 140 151 149 153 154 154 156
349 347 346 345 343 342 340 339 338 336 334 332 331 330 327 325 324 322 320 318 317 315 315 315 317 318 316 313 305 285 281 288 18 117 141 135 141 154 173 175 186 212 214 228 234 232 226 218 228 225 212 235 246 242 213 215 193 225 148 162 164 181 206 240 262 197 143 150 163 160 183 122 197 148 161 159 221 126 141 148 139 149 147 153 150 158 160 159
347 347 345 344 343 341 339 337 335 331 329 328 327 325 323 321 319 317 315 314 312 313 312 314 316 317 316 303 271 251 256 265 270 240 133 152 163 164 161 168 171 208 216 223 226 229 215 223 219 225 226 228 232 249 261 232 199 223 169 163 190 190 228 243 236 139 195 174 161 179 117 162 189 153 156 155 243 137 130 151 138 145 149 153 156 162 163 163
347 346 345 344 342 340 337 335 331 328 327 325 324 322 321 319 317 314 313 311 311 310 311 312 315 316 321 312 281 241 238 257 262 146 150 156 180 162 159 170 182 192 209 218 215 221 216 218 219 218 237 231 215 231 250 278 267 210 173 176 183 206 207 234 227 198 164 174 156 165 176 152 205 136 155 174 122 138 130 134 138 145 149 159 156 167 164 163
346 345 345 343 341 337 334 332 329 327 325 323 321 321 318 315 313 313 310 309 308 307 308 310 311 313 304 289 277 288 269 268 152 157 155 170 176 163 168 188 187 194 209 217 223 223 223 213 226 227 225 229 253 255 218 216 231 255 280 175 177 207 215 216 237 210 169 198 169 176 179 157 201 146 197 152 138 137 132 134 146 151 158 158 166 165 168 163
345 345 344 341 337 334 332 330 328 326 324 322 320 317 315 312 311 308 307 307 305 304 305 306 307 306 285 251 269 262 270 284 140 163 169 171 167 177 191 225 178 203 211 213 220 229 221 225 224 220 248 264 250 223 260 255 265 254 225 205 207 235 237 223 245 213 205 172 179 191 167 169 184 164 184 152 144 123 141 141 146 158 160 159 165 171 167 169
345 344 341 339 335 332 331 329 328 326 324 321 319 315 312 311 309 309 305 304 302 302 301 300 303 284 262 235 258 261 262 249 256 225 217 180 201 214 208 225 191 212 219 219 221 221 234 236 230 240 238 244 240 272 262 255 258 239 253 202 197 246 219 234 241 229 190 181 171 197 171 169 178 201 165 147 146 167 148 146 152 154 167 162 165 170 163 173
343 342 341 337 335 331 329 327 327 326 323 319 315 313 312 309 307 305 304 301 298 295 295 296 299 265 266 264 247 241 269 294 303 271 221 194 222 225 239 233 205 214 215 227 221 222 225 233 239 242 242 197 252 267 258 267 269 282 274 235 193 214 235 219 245 231 198 186 183 183 177 181 171 214 160 145 160 169 152 150 156 159 166 165 166 165 169 179
342 341 339 337 333 330 327 326 325 324 321 317 315 313 309 306 304 302 302 301 295 294 289 288 279 243 267 261 240 246 255 265 275 272 267 247 213 221 225 236 249 227 227 231 230 221 226 231 233 242 243 259 237 215 229 217 245 250 268 308 275 208 215 211 218 249 186 193 180 168 203 187 177 194 172 139 170 169 156 154 163 162 162 168 173 163 173 180
341 338 337 335 333 329 327 325 324 322 319 316 313 310 306 304 301 300 297 289 290 285 279 271 254 248 243 254 274 267 263 248 248 247 255 252 243 230 217 226 234 239 237 247 248 245 227 221 239 243 251 245 248 249 260 264 284 264 231 238 263 269 214 190 205 229 204 151 188 167 210 199 171 182 167 152 167 176 163 162 166 168 166 168 177 166 173 184
339 336 335 335 332 329 327 325 323 320 317 315 312 308 304 300 298 295 292 288 271 270 268 246 232 238 225 258 254 251 247 262 271 257 251 251 228 236 231 217 223 229 236 232 239 245 256 235 219 235 235 241 258 269 271 268 219 236 262 221 213 242 215 219 202 222 218 143 196 182 196 202 192 179 171 159 168 183 173 167 172 169 169 170 175 169 175 182
338 335 333 334 330 328 326 325 323 321 318 315 312 306 302 297 291 291 290 281 286 298 225 235 207 228 290 286 278 54 221 228 235 239 240 242 220 231 225 219 219 221 227 226 230 233 229 244 231 220 234 230 240 240 252 255 246 219 227 244 232 210 233 209 182 218 208 146 198 200 179 151 200 238 194 168 174 185 178 175 178 173 174 173 176 172 176 180
336 335 333 331 329 327 326 323 322 320 320 317 314 307 300 291 280 277 269 273 265 212 211 244 193 197 273 323 350 265 237 217 239 220 224 214 219 215 215 211 213 214 213 230 218 226 222 228 219 234 229 236 222 227 234 237 247 238 206 242 242 237 196 217 164 217 189 169 188 197 208 180 115 218 224 171 179 185 181 181 181 180 179 172 177 177 177 183
337 335 332 329 326 327 324 322 321 320 319 317 313 300 296 286 280 282 235 229 217 205 228 245 277 274 250 250 262 250 241 236 208 223 205 190 244 217 225 200 208 212 202 217 214 220 209 218 208 226 210 220 222 212 223 220 227 220 218 214 235 251 227 186 184 180 198 181 209 185 215 162 177 202 221 174 183 185 187 185 183 185 183 174 179 185 177 184
337 336 330 326 325 325 323 319 320 320 319 317 303 293 273 273 235 223 213 170 181 187 221 192 196 191 241 144 216 241 234 219 190 212 189 206 190 243 234 229 204 202 203 209 194 215 194 222 206 221 219 206 213 220 216 227 230 238 222 212 229 244 203 198 194 196 198 195 209 197 195 178 205 231 201 178 189 191 187 188 186 186 184 180 182 188 182 182
335 333 330 326 324 324 321 319 317 317 323 324 327 328 295 229 209 180 210 207 232 249 277 287 194 233 266 284 291 261 317 120 187 192 208 196 199 187 228 214 204 211 210 209 189 203 196 209 209 212 215 213 210 219 226 222 238 249 256 244 223 224 226 227 211 202 187 220 201 208 200 180 189 185 223 188 191 197 190 192 191 188 186 184 185 188 191 182
334 334 331 327 324 323 322 319 316 315 319 310 303 301 336 355 336 330 335 289 260 248 257 266 255 242 251 269 264 254 213 187 205 189 220 161 213 231 205 206 212 208 214 211 218 179 219 219 220 217 216 219 216 216 226 233 226 241 250 257 252 229 226 218 223 193 184 221 193 212 207 193 179 177 220 218 198 199 196 195 189 192 192 186 185 187 193 188
334 333 330 329 324 324 323 320 316 313 314 285 272 290 307 7 354 326 321 296 275 265 254 251 255 258 254 253 257 270 280 268 192 211 207 214 223 224 183 205 209 219 202 212 218 198 208 224 219 219 218 218 226 219 219 229 233 233 244 249 256 233 227 218 235 176 185 196 224 195 217 171 189 195 196 215 216 201 201 199 193 194 194 188 187 189 189 192
333 331 329 326 325 322 323 319 315 312 308 281 254 271 306 346 335 335 310 280 279 254 249 248 247 247 247 241 240 238 248 236 240 198 206 199 228 219 217 200 216 220 211 207 216 210 213 222 225 220 220 217 219 225 218 221 233 238 234 240 252 266 246 215 227 204 177 187 217 210 213 209 188 197 201 237 213 203 202 200 202 192 193 191 190 189 190 193
331 329 327 326 325 323 321 318 311 296 259 281 288 277 315 336 336 335 313 284 293 284 237 236 228 235 234 228 216 228 227 231 231 230 196 197 221 200 232 213 218 220 222 210 218 225 223 220 213 223 222 219 219 218 224 217 221 231 241 236 241 249 238 250 249 185 159 187 235 214 226 232 211 183 177 207 228 211 204 202 202 201 198 196 190 188 190 194
325 325 326 324 327 323 321 316 304 354 333 310 285 22 2 327 335 344 314 288 242 258 223 236 231 227 228 222 222 215 219 231 227 226 214 202 204 213 216 229 226 221 226 222 218 230 235 224 206 212 221 220 221 220 219 221 222 224 229 242 243 236 252 214 230 178 181 204 198 227 226 229 216 225 204 178 210 226 207 211 204 194 195 193 197 189 185 194
323 322 325 324 325 331 316 301 37 340 321 293 1 354 352 332 350 327 304 277 283 275 225 218 164 225 200 206 205 218 214 228 217 216 222 206 207 219 198 226 213 229 220 228 226 228 233 230 221 211 214 219 220 224 218 218 230 223 218 225 244 253 249 246 247 205 199 209 194 207 238 227 217 223 209 158 203 225 213 209 208 192 191 193 204 200 189 192
321 322 323 325 323 338 339 335 339 318 310 32 5 335 331 326 347 310 284 243 271 212 206 116 169 112 185 187 195 185 213 221 205 207 216 206 203 199 235 212 211 236 238 220 233 227 216 228 225 218 213 217 219 221 217 216 222 230 223 217 226 243 254 256 251 205 204 205 223 208 212 243 220 220 226 199 198 217 224 208 204 198 189 200 198 207 195 190
320 318 320 323 319 324 277 291 304 300 289 311 333 326 317 326 313 277 253 319 275 133 152 149 295 125 241 175 189 193 202 143 191 200 207 199 205 187 222 225 220 214 223 227 232 224 223 216 228 220 219 215 221 218 216 218 224 228 225 235 219 224 245 252 252 252 225 205 206 206 206 228 232 222 204 210 218 225 228 210 198 210 192 196 200 202 204 200
318 316 316 322 320 304 283 237 268 277 286 311 315 315 316 307 287 293 270 255 347 327 68 180 102 192 225 179 186 202 215 237 257 172 192 207 193 211 201 228 235 227 217 230 241 230 224 231 215 233 219 221 221 222 222 217 226 224 235 231 245 224 218 241 252 251 239 230 224 205 204 243 242 236 232 207 217 218 221 226 217 202 200 191 198 200 200 200
316 315 314 319 321 303 315 291 253 258 274 282 288 296 301 288 268 232 214 254 140 247 174 96 187 178 199 181 198 200 217 212 242 151 183 200 175 211 228 214 232 238 233 218 240 248 249 205 230 224 228 221 220 223 225 225 228 231 225 238 231 244 239 214 221 249 266 251 241 237 210 206 241 223 230 226 211 216 213 203 211 199 200 191 187 202 199 192
314 311 309 316 302 311 310 279 262 262 304 315 315 302 285 265 239 224 233 226 226 257 108 145 189 167 188 194 199 200 215 210 212 177 179 189 183 198 214 214 222 240 238 235 222 233 246 250 206 225 231 230 232 225 214 226 225 222 225 221 238 238 244 236 228 219 235 248 256 243 221 208 235 221 222 229 231 222 220 218 203 205 197 191 187 199 204 183
313 310 306 307 281 276 254 256 292 337 317 316 313 292 259 236 218 223 225 103 259 208 213 179 210 188 195 198 213 191 201 210 205 181 190 186 191 191 201 216 187 210 224 223 227 214 230 235 239 209 217 231 217 231 218 219 220 219 221 220 221 224 231 240 241 244 224 233 223 233 242 234 225 223 236 218 212 225 222 225 215 202 194 190 195 195 193 173
312 307 304 292 277 241 231 246 277 287 296 286 287 273 238 226 233 212 235 234 241 304 174 201 209 202 198 203 214 202 198 212 193 188 202 188 210 200 204 216 197 208 212 207 228 215 221 231 236 229 206 216 228 206 211 218 213 215 211 213 215 216 213 229 235 243 236 223 241 240 229 246 257 220 213 241 220 213 223 217 223 207 181 173 184 189 191 186
311 306 301 283 275 262 258 247 246 253 275 279 253 246 241 233 236 181 221 219 249 255 313 254 227 204 205 212 209 206 194 211 203 199 194 201 204 209 204 210 220 200 230 212 214 214 222 207 222 225 212 199 218 221 209 227 205 215 219 215 223 225 215 219 226 233 231 248 244 238 242 237 234 197 200 212 224 228 217 221 213 198 179 185 192 191 192 192
311 297 279 276 265 251 239 236 243 241 245 250 230 228 221 230 243 226 225 229 220 264 272 271 270 246 208 217 215 212 216 194 211 207 199 209 205 216 202 203 209 225 199 233 211 222 226 236 208 216 235 194 217 214 221 216 221 207 217 224 227 224 214 239 225 227 239 231 234 237 238 217 239 245 206 209 206 216 225 225 226 194 189 201 184 185 188 189
308 314 306 281 276 271 248 206 212 220 225 227 228 222 228 222 228 221 256 249 246 245 248 260 255 245 241 216 211 228 204 239 186 218 205 210 217 213 217 204 204 209 214 212 207 221 216 233 210 199 220 221 209 207 212 217 220 197 205 216 222 219 226 232 254 251 238 233 248 251 245 226 241 240 224 209 210 214 214 215 218 210 194 212 184 182 185 186
319 313 308 296 281 269 267 187 181 201 218 236 230 236 235 244 247 271 253 249 265 262 248 247 232 235 231 231 216 208 220 211 216 196 221 200 218 221 211 218 204 204 219 221 218 236 239 220 214 216 202 216 210 207 213 212 235 223 213 214 216 226 232 231 232 225 230 241 231 227 240 243 219 226 210 212 207 217 208 215 213 210 203 210 198 175 181 185
311 301 290 282 268 253 248 185 186 198 224 230 235 245 258 255 241 250 273 286 291 279 273 252 252 241 230 237 223 212 211 223 204 217 221 203 232 203 220 218 206 209 206 218 243 209 228 257 211 210 219 198 202 204 212 219 217 234 233 181 217 190 215 210 238 238 226 225 247 235 241 240 236 241 216 217 216 205 202 200 209 214 207 202 206 169 177 179
293 288 286 306 60 181 170 120 211 219 224 233 239 248 240 257 275 276 273 282 285 283 270 266 266 233 249 232 237 230 215 215 218 218 226 200 225 188 215 214 211 206 205 208 222 240 216 234 242 210 209 185 190 198 216 207 212 227 242 240 201 235 213 216 219 248 242 238 232 230 232 237 222 235 224 216 220 194 197 192 206 224 221 199 207 159 172 178
298 310 283 283 259 114 89 227 238 230 236 239 242 248 263 259 247 253 264 266 273 273 262 264 256 265 249 255 233 235 226 224 218 227 220 202 229 196 215 201 224 201 204 203 217 217 240 224 243 217 195 188 199 195 215 209 200 206 222 232 231 210 226 237 219 223 224 231 239 245 234 225 237 228 229 220 209 204 200 205 183 213 252 241 212 171 180 174
320 287 281 275 282 73 219 238 244 240 242 250 255 264 262 258 260 258 255 256 264 256 266 272 270 253 259 258 247 240 250 228 223 227 214 223 223 215 211 216 200 224 195 204 210 206 228 218 223 239 200 203 212 196 212 217 208 209 213 222 223 218 196 214 230 220 225 224 226 238 243 244 217 228 239 253 208 178 188 232 201 197 224 240 232 207 168 179
293 275 267 326 346 331 266 255 246 244 251 249 252 250 251 254 266 271 275 271 258 262 254 258 260 272 267 257 259 249 244 251 240 230 217 219 212 236 192 213 211 210 213 202 203 204 219 219 226 220 234 211 210 208 197 217 221 214 211 221 220 229 220 204 221 217 218 223 229 237 252 231 236 245 212 243 227 194 199 215 218 190 214 225 228 218 159 170
294 281 307 306 308 310 298 272 267 264 255 258 260 259 265 272 275 268 259 251 260 262 261 252 252 254 251 262 261 260 261 253 246 243 233 215 225 217 230 213 220 207 219 207 200 206 202 228 218 228 234 253 221 213 204 202 219 224 216 218 215 220 223 229 221 217 235 217 216 221 233 239 222 245 254 243 255 221 197 209 219 209 197 221 210 208 146 158
294 296 296 283 284 280 263 255 253 247 254 259 255 259 263 269 263 254 252 259 261 249 250 258 254 246 258 254 256 264 270 273 255 252 244 246 226 213 209 228 216 223 199 207 210 174 217 199 238 207 210 230 253 210 211 202 205 222 226 214 219 222 227 234 246 212 223 233 237 218 233 225 203 240 192 228 238 234 231 206 205 228 228 197 183 116 143 146
298 280 260 264 272 251 246 247 254 260 258 262 263 255 250 242 241 252 264 264 258 257 259 252 255 259 245 244 258 259 255 258 272 262 268 260 270 204 214 219 206 228 207 202 315 185 215 194 201 222 204 203 212 212 196 200 209 208 228 233 219 221 219 223 230 235 244 195 222 239 237 225 204 193 224 224 228 234 249 222 206 219 241 219 112 137 141 153
287 299 305 291 272 252 241 242 259 263 264 276 292 302 314 299 311 314 304 282 267 260 259 266 257 255 261 254 244 248 254 255 255 264 267 265 261 228 227 230 194 208 163 45 338 221 206 215 205 218 231 215 219 239 197 200 210 216 208 221 230 222 224 222 224 235 236 240 221 219 245 272 226 200 198 217 230 220 179 207 248 249 201 184 113 136 145 149
285 269 292 303 320 295 286 271 252 254 291 318 294 316 297 305 314 302 311 303 324 306 293 279 266 245 238 255 264 255 249 248 248 258 258 264 260 261 219 239 222 195 65 197 73 288 247 217 209 207 224 241 222 221 237 205 215 218 219 213 223 234 225 226 223 224 227 241 247 238 204 243 253 258 222 204 213 222 191 176 211 252 298 231 166 146 135 149
263 263 273 306 299 292 297 290 297 281 280 291 281 299 287 298 298 295 305 303 321 316 313 318 342 338 307 268 260 260 259 254 245 249 253 248 266 261 256 227 225 151 126 244 241 244 243 250 228 218 213 224 237 231 220 235 220 222 222 224 216 220 234 228 226 232 219 226 241 231 201 228 249 243 251 252 222 218 206 186 187 224 245 237 223 156 156 161
271 281 283 287 270 283 275 291 293 293 289 275 275 261 276 277 281 278 288 315 309 308 328 327 324 335 335 339 348 339 3 327 279 268 248 251 245 256 249 242 236 183 179 222 233 241 241 237 234 231 229 213 223 237 244 236 233 222 228 228 226 219 220 235 238 229 229 236 238 245 228 213 226 238 248 249 217 226 220 204 171 205 232 259 220 152 182 167
274 291 302 330 316 302 296 284 275 276 272 267 268 250 247 256 266 280 287 295 297 297 333 327 323 322 325 325 326 321 359 341 327 313 324 323 297 254 251 256 241 229 216 204 226 215 235 222 234 237 238 232 217 220 231 243 243 241 225 231 235 225 226 221 230 239 234 232 238 242 241 243 235 239 246 258 246 213 218 217 211 202 232 245 241 207 193 197
271 280 305 306 303 289 296 293 281 277 279 279 271 271 266 254 256 265 278 271 280 292 319 313 298 319 321 317 319 322 342 329 323 316 313 312 303 306 303 259 253 233 209 218 214 220 209 239 230 234 243 231 235 227 218 227 241 251 257 229 226 244 229 219 222 221 237 238 233 233 239 236 239 239 240 236 245 249 243 232 233 208 202 230 242 240 252 239
274 292 282 234 257 274 285 287 291 284 265 265 275 284 286 284 275 263 267 272 277 289 289 288 326 326 309 307 318 326 329 319 315 313 306 292 284 285 279 287 265 247 232 212 213 221 214 229 225 223 228 237 231 236 230 224 227 235 236 244 233 219 250 255 222 213 222 239 246 243 238 233 223 211 233 241 243 234 232 233 241 233 219 212 216 224 235 260